Temperature
2 2 2 3 3 3 3 3 3 3 3 3 3 4 4 4 4 4 4 5 5 5 5 5 5 4 4 4 4 4 4 4 4 4 4 4 3 3
2 2 2 2 2 2 2 2 2 2 2 2 3 3 3 3 3 4 4 4 4 4 4 4 4 4 4 3 3 4 3 3 3 3 3 3 3 3
1 1 1 1 2 2 2 2 2 2 2 2 2 2 2 3 3 3 3 3 3 3 3 3 3 3 3 3 3 3 3 3 3 3 3 2 2 2
0 1 1 1 1 1 1 1 1 1 1 1 1 1 2 2 2 2 2 2 2 2 2 2 2 2 2 2 2 2 2 2 2 2 2 2 2 2
0 0 0 0 0 0 0 1 1 1 1 1 1 1 1 1 1 1 1 1 2 2 2 2 2 1 1 2 1 1 2 2 2 2 2 1 1 1
-0 -0 -0 -0 -0 -0 -0 0 0 0 0 -0 -0 0 0 0 0 0 1 1 1 1 1 1 1 1 1 1 1 1 1 1 1 1 1 1 1 1
-1 -1 -1 -1 -1 -1 -1 -1 -1 -1 -1 -1 -1 -1 -0 -1 -1 -0 -0 -0 -0 -0 -0 0 0 0 0 0 0 0 0 0 1 1 1 1 1 0
-1 -1 -1 -1 -1 -1 -1 -1 -1 -1 -1 -1 -1 -1 -1 -1 -1 -1 -1 -1 -1 -1 -1 -0 -1 -0 -0 -0 -0 -0 -0 -0 -0 -0 -0 0 -0 -0
-2 -2 -2 -2 -2 -2 -1 -1 -1 -1 -2 -2 -2 -2 -2 -2 -2 -2 -2 -2 -2 -2 -2 -1 -1 -1 -1 -1 -1 -1 -1 -1 -1 -1 -1 -1 -1 -1
-2 -2 -2 -2 -2 -2 -2 -2 -2 -2 -2 -2 -2 -2 -2 -2 -2 -2 -2 -2 -2 -2 -2 -2 -2 -1 -1 -1 -1 -1 -1 -1 -1 -1 -1 -1 -1 -1
-2 -2 -2 -2 -2 -2 -3 -3 -2 -2 -2 -2 -3 -3 -3 -3 -3 -3 -3 -3 -3 -3 -3 -3 -3 -2 -2 -2 -2 -2 -2 -2 -2 -2 -2 -2 -2 -2
-3 -3 -3 -3 -3 -3 -3 -3 -3 -3 -3 -3 -3 -3 -3 -3 -3 -3 -3 -3 -3 -4 -3 -4 -4 -4 -3 -2 -2 -3 -3 -3 -2 -2 -2 -2 -2 -2
-3 -3 -3 -3 -3 -3 -3 -3 -3 -3 -3 -3 -3 -3 -3 -3 -3 -3 -3 -3 -4 -4 -4 -4 -4 -5 -5 -4 -3 -3 -3 -3 -3 -3 -3 -3 -3 -3
-4 -4 -4 -4 -4 -4 -4 -4 -4 -4 -4 -4 -4 -4 -4 -3 -3 -3 -4 -4 -4 -4 -4 -5 -5 -5 -5 -5 -5 -4 -3 -4 -4 -3 -3 -3 -3 -3
-4 -4 -4 -4 -4 -4 -4 -4 -4 -4 -4 -4 -4 -4 -4 -4 -4 -4 -4 -4 -4 -4 -5 -5 -5 -5 -5 -5 -5 -5 -4 -4 -4 -4 -4 -4 -4 -4
-4 -4 -4 -4 -4 -4 -4 -4 -4 -4 -4 -4 -4 -4 -4 -5 -4 -5 -5 -5 -5 -5 -5 -5 -5 -5 -5 -5 -5 -5 -5 -5 -5 -5 -4 -4 -4 -4
-4 -4 -4 -4 -4 -4 -4 -4 -5 -5 -5 -5 -5 -5 -5 -5 -5 -5 -5 -5 -5 -5 -5 -5 -5 -5 -5 -5 -5 -5 -5 -5 -5 -5 -5 -4 -4 -4
-4 -4 -5 -5 -5 -5 -5 -5 -5 -5 -5 -5 -5 -5 -5 -6 -6 -6 -6 -6 -6 -6 -6 -5 -5 -5 -5 -5 -5 -5 -5 -5 -5 -5 -5 -5 -4 -4
-5 -5 -5 -5 -5 -5 -5 -5 -5 -6 -6 -6 -6 -6 -6 -6 -6 -6 -6 -6 -6 -6 -6 -6 -6 -6 -6 -6 -6 -6 -6 -6 -6 -5 -5 -5 -5 -5
-5 -5 -5 -5 -5 -6 -6 -6 -6 -6 -6 -6 -6 -6 -6 -6 -6 -6 -6 -6 -6 -6 -6 -6 -6 -6 -6 -6 -6 -6 -6 -6 -6 -6 -6 -6 -5 -5
-5 -5 -5 -6 -6 -6 -6 -6 -6 -6 -6 -6 -6 -6 -6 -6 -6 -6 -6 -6 -6 -6 -6 -6 -6 -6 -6 -6 -6 -6 -6 -6 -6 -6 -6 -6 -6 -5
-6 -6 -6 -6 -6 -6 -6 -6 -6 -6 -7 -7 -7 -7 -7 -7 -7 -7 -7 -7 -7 -7 -6 -6 -6 -6 -6 -6 -6 -6 -6 -6 -6 -6 -6 -6 -7 -6
-6 -6 -6 -6 -6 -6 -6 -6 -7 -7 -7 -7 -7 -7 -7 -7 -7 -7 -7 -7 -7 -7 -7 -7 -6 -6 -6 -6 -7 -7 -7 -6 -6 -6 -6 -6 -6 -6
Wind_Speed
1 1 2 1 1 1 1 1 1 2 3 1 1 1 3 3 2 3 4 4 4 4 4 4 4 5 5 6 6 6 7 8 7 7 8 9 10 11
1 1 2 2 1 1 1 1 1 2 3 2 1 1 2 3 3 4 4 4 4 4 4 5 5 5 5 6 6 7 7 7 7 8 8 10 10 11
1 2 2 2 1 1 1 1 1 1 3 3 2 1 2 2 3 3 4 4 4 5 5 5 6 6 6 6 7 7 7 7 7 8 9 10 10 11
2 2 2 2 2 2 2 2 2 2 2 3 2 2 3 2 2 2 3 4 4 4 5 6 6 7 7 7 6 7 7 7 7 8 9 10 10 11
2 2 2 2 2 2 2 2 2 2 2 2 3 2 2 2 2 2 3 3 4 4 5 5 6 8 8 7 6 6 6 6 7 8 9 9 10 11
2 2 2 2 3 3 2 2 2 2 2 2 3 3 2 2 1 2 2 2 3 4 5 6 7 7 7 8 7 6 6 6 7 8 8 9 10 11
2 2 2 2 3 3 3 2 2 2 2 2 3 3 2 2 2 2 2 3 3 2 2 4 5 5 6 6 6 6 6 6 7 8 9 9 10 11
2 2 2 2 3 3 4 4 3 3 3 3 3 3 4 3 2 2 2 3 3 2 3 4 3 3 4 5 5 6 7 7 8 8 9 9 10 10
1 1 2 2 2 1 2 3 3 4 4 4 4 4 4 3 3 3 3 3 4 3 3 4 2 3 4 5 6 5 5 7 8 9 9 9 9 9
1 1 1 2 2 1 1 1 2 2 3 3 3 4 4 3 3 4 4 3 2 2 2 3 2 3 4 5 6 5 6 8 9 9 10 10 10 10
1 1 1 2 2 2 1 1 2 3 4 4 4 5 5 5 4 2 2 1 2 2 1 1 2 3 3 3 4 5 7 8 9 10 11 11 11 10
1 1 2 2 2 2 1 1 2 3 2 3 3 4 4 4 4 3 3 2 2 2 1 1 1 3 4 3 2 5 7 8 10 10 11 11 11 8
1 1 1 2 2 3 3 2 3 3 2 2 2 2 2 2 1 1 1 2 2 3 2 1 2 2 2 4 3 3 4 5 7 8 9 10 11 9
1 1 1 2 3 3 2 3 3 3 1 2 2 1 1 1 1 2 2 2 2 3 4 3 3 3 3 5 4 3 4 5 5 4 6 9 10 10
1 2 2 3 3 2 2 3 3 1 1 1 1 2 1 1 1 1 2 2 3 3 4 4 3 3 3 4 4 5 5 4 3 3 4 5 5 6
1 2 2 2 3 2 2 2 1 1 1 1 1 1 1 1 1 1 1 1 2 2 3 3 3 3 3 4 4 5 5 4 4 4 4 4 5 5
1 1 1 1 1 1 2 2 2 2 2 2 1 1 2 2 2 2 1 1 1 2 3 2 2 3 3 4 4 4 4 3 4 4 4 5 5 4
1 0 0 0 1 1 1 2 2 2 2 1 2 2 2 2 2 2 1 1 1 2 2 2 2 2 2 2 3 3 2 3 3 4 4 4 5 5
1 0 0 0 1 1 1 1 2 2 2 2 2 2 2 2 2 2 2 1 2 2 2 2 2 1 3 4 3 2 2 3 4 4 3 4 5 6
1 0 0 1 1 1 1 1 1 2 2 2 2 2 2 2 2 2 2 2 2 2 2 2 2 2 2 3 3 4 5 4 3 4 4 4 4 6
1 1 1 1 1 1 1 1 1 1 2 2 2 2 2 2 2 2 2 3 3 2 3 3 3 4 2 1 2 3 3 5 5 4 3 4 4 3
1 1 1 1 1 1 1 1 1 1 1 1 2 2 2 2 2 2 2 2 2 2 3 3 3 2 1 2 3 4 4 5 6 6 5 4 3 3
2 1 1 1 1 1 1 1 2 2 1 1 1 2 2 2 2 2 2 2 2 3 3 3 2 2 2 2 2 3 4 4 4 4 4 7 7 7
Wind_Direction
309 305 291 277 276 275 276 223 205 260 274 275 352 30 23 17 5 2 337 320 323 323 316 316 311 312 308 298 295 298 299 301 298 299 302 303 305 307
303 301 293 285 285 279 256 264 250 236 267 290 299 308 357 343 348 349 332 334 320 316 321 313 305 303 303 300 293 294 294 295 295 297 298 300 302 305
291 288 292 292 296 295 283 260 253 235 253 283 299 336 344 332 336 339 333 327 320 308 306 317 317 305 298 299 299 294 292 293 294 296 297 299 303 304
270 275 284 289 283 281 280 272 266 254 237 259 286 309 305 306 321 325 327 324 307 303 308 309 311 311 303 298 297 295 294 295 296 298 298 299 301 303
267 262 261 258 262 269 271 263 264 270 238 249 277 290 291 306 323 317 318 317 309 307 313 312 309 308 312 311 304 301 299 296 297 299 300 302 303 302
267 263 263 253 249 255 260 252 247 246 248 248 264 281 285 297 307 304 311 311 314 322 317 312 308 306 306 308 306 304 305 306 304 302 302 305 305 304
285 277 272 264 261 259 258 248 238 231 238 247 259 280 285 295 295 299 303 312 309 319 324 319 318 313 310 307 313 318 316 314 311 308 305 306 305 305
284 297 285 270 281 274 271 265 252 238 241 246 257 261 273 279 295 298 301 310 304 320 331 315 320 311 315 309 309 315 323 325 320 313 310 311 310 310
268 294 303 309 304 291 300 302 299 281 261 249 246 257 268 273 277 287 287 289 283 291 314 306 312 302 315 310 311 315 325 331 334 327 321 317 314 314
254 256 275 290 300 315 309 307 306 308 288 263 247 257 266 268 252 257 265 287 291 300 309 289 308 310 319 311 311 320 328 330 330 329 326 322 318 315
270 258 276 272 288 308 317 298 298 301 308 298 284 282 285 285 287 271 272 262 288 300 330 303 314 322 310 302 318 328 329 326 326 326 327 325 321 320
300 285 280 285 283 292 284 260 276 287 301 313 303 299 295 291 288 248 222 230 273 294 329 351 311 338 323 311 332 337 334 327 323 320 321 323 326 327
291 290 292 291 283 291 296 280 278 287 282 289 285 281 284 276 293 294 235 210 236 262 267 325 291 310 293 303 311 315 331 332 327 324 323 324 328 329
272 279 284 301 301 304 306 302 303 314 292 287 289 290 297 313 350 358 350 327 293 269 265 265 261 271 287 294 296 306 318 322 324 324 333 328 327 324
280 297 308 315 323 320 325 327 331 320 298 292 298 306 310 318 348 357 350 340 328 312 295 281 254 264 268 274 286 296 310 310 317 324 328 329 325 328
337 324 334 352 356 349 344 349 353 347 333 317 324 323 329 340 338 330 334 351 346 329 322 306 282 261 271 272 272 281 289 289 306 316 319 322 327 324
326 3 28 13 3 0 2 3 12 19 10 351 341 335 336 336 331 334 330 343 326 314 325 329 323 302 267 263 268 273 280 289 294 306 316 315 313 320
17 95 29 340 351 354 0 359 1 1 351 339 335 326 323 322 321 325 320 321 314 305 302 305 326 336 326 299 259 259 270 292 306 310 311 308 312 319
47 90 356 4 0 357 355 353 345 344 348 347 339 331 323 318 316 313 313 313 305 301 301 297 295 301 312 312 309 295 285 297 301 306 305 299 301 306
31 23 355 351 353 348 346 345 346 348 352 346 335 328 322 317 312 310 308 295 295 301 303 303 298 282 269 279 287 297 301 289 294 298 304 302 294 298
353 351 351 346 341 335 335 340 340 334 333 331 329 327 322 320 314 316 317 312 310 302 298 298 291 298 282 265 279 291 306 315 305 298 303 309 313 312
351 346 343 335 333 333 334 339 334 324 325 328 322 320 318 316 312 315 315 313 310 302 303 305 303 307 290 272 287 300 314 324 330 331 321 303 297 298
353 348 337 328 327 337 340 332 319 308 308 310 309 307 305 306 304 301 301 304 306 306 311 316 324 325 308 294 298 308 314 322 330 339 334 335 326 308
Height
1476 1477 1477 1478 1479 1480 1481 1481 1482 1481 1481 1482 1483 1483 1483 1483 1483 1482 1482 1482 1482 1482 1482 1482 1482 1481 1481 1481 1481 1481 1480 1480 1480 1480 1479 1479 1478 1478
1473 1474 1474 1475 1476 1476 1477 1478 1479 1479 1478 1478 1479 1479 1479 1479 1479 1479 1479 1478 1478 1478 1478 1478 1477 1477 1477 1477 1476 1476 1476 1475 1475 1475 1474 1474 1473 1473
1470 1471 1471 1472 1472 1473 1474 1475 1475 1476 1475 1475 1476 1476 1476 1476 1476 1475 1475 1475 1474 1474 1474 1473 1473 1473 1472 1472 1471 1471 1471 1470 1470 1470 1469 1469 1468 1467
1467 1468 1468 1469 1469 1470 1470 1471 1472 1472 1472 1471 1472 1473 1473 1473 1472 1471 1471 1471 1470 1470 1470 1469 1469 1468 1468 1467 1467 1466 1466 1465 1465 1465 1464 1464 1463 1462
1464 1465 1465 1465 1466 1466 1467 1467 1468 1469 1469 1469 1469 1469 1469 1469 1468 1468 1468 1467 1467 1466 1466 1465 1465 1464 1463 1462 1462 1462 1461 1461 1461 1460 1460 1459 1458 1457
1461 1462 1462 1462 1462 1463 1464 1464 1465 1465 1465 1466 1466 1466 1466 1466 1465 1464 1464 1464 1463 1462 1462 1461 1461 1460 1459 1458 1458 1457 1457 1457 1456 1456 1455 1454 1453 1452
1458 1459 1459 1459 1460 1460 1461 1461 1461 1461 1462 1462 1462 1462 1462 1462 1462 1461 1461 1460 1459 1459 1458 1457 1457 1456 1455 1454 1453 1453 1453 1452 1452 1451 1450 1449 1449 1448
1455 1456 1456 1457 1457 1457 1457 1458 1459 1458 1458 1459 1459 1459 1459 1459 1459 1459 1458 1457 1456 1457 1455 1453 1453 1452 1451 1450 1449 1449 1449 1448 1448 1447 1446 1445 1444 1443
1453 1453 1453 1454 1454 1454 1454 1454 1455 1455 1456 1456 1456 1456 1456 1456 1455 1455 1455 1454 1453 1452 1451 1449 1449 1448 1448 1447 1446 1446 1445 1445 1444 1443 1442 1441 1440 1439
1450 1451 1451 1451 1451 1451 1451 1451 1452 1452 1452 1452 1453 1452 1453 1453 1452 1452 1452 1451 1450 1449 1449 1447 1446 1445 1444 1443 1443 1442 1442 1441 1441 1440 1438 1437 1436 1435
1448 1448 1449 1449 1449 1449 1449 1449 1449 1449 1449 1449 1449 1449 1449 1450 1450 1449 1448 1448 1446 1446 1446 1444 1443 1442 1441 1440 1440 1440 1439 1438 1437 1436 1435 1434 1432 1431
1446 1446 1447 1446 1447 1447 1447 1446 1446 1446 1446 1446 1446 1446 1446 1445 1445 1445 1445 1444 1443 1442 1442 1442 1441 1440 1438 1437 1437 1437 1436 1435 1434 1432 1431 1430 1429 1427
1444 1444 1444 1444 1444 1444 1444 1444 1443 1444 1443 1443 1443 1442 1442 1442 1441 1441 1441 1441 1440 1439 1440 1439 1438 1438 1437 1435 1433 1434 1433 1431 1430 1429 1427 1426 1425 1423
1442 1442 1442 1442 1442 1442 1442 1441 1441 1441 1440 1440 1440 1439 1439 1438 1438 1438 1438 1438 1437 1437 1437 1437 1435 1435 1433 1432 1430 1430 1429 1428 1427 1425 1424 1423 1421 1420
1440 1440 1440 1440 1440 1439 1439 1439 1439 1438 1438 1438 1437 1437 1436 1436 1435 1435 1434 1434 1434 1434 1434 1433 1433 1432 1431 1429 1428 1426 1425 1425 1424 1423 1421 1420 1418 1416
1438 1438 1438 1438 1438 1437 1437 1436 1436 1436 1436 1435 1435 1434 1434 1433 1433 1432 1432 1431 1431 1431 1431 1430 1430 1429 1427 1427 1426 1424 1423 1422 1421 1420 1419 1417 1415 1414
1436 1436 1436 1436 1435 1435 1435 1434 1434 1434 1434 1433 1433 1432 1432 1432 1431 1431 1430 1429 1429 1428 1427 1427 1427 1426 1425 1425 1423 1422 1421 1420 1419 1418 1416 1414 1412 1411
1435 1434 1434 1434 1433 1433 1433 1432 1432 1432 1432 1432 1431 1431 1430 1430 1429 1429 1428 1427 1427 1426 1425 1424 1424 1423 1423 1422 1422 1420 1419 1418 1416 1415 1413 1411 1409 1409
1433 1432 1432 1432 1432 1432 1431 1431 1431 1431 1430 1430 1430 1429 1429 1428 1428 1427 1426 1426 1425 1424 1423 1423 1422 1421 1420 1419 1419 1419 1417 1415 1414 1412 1411 1409 1407 1406
1431 1431 1430 1430 1430 1430 1430 1430 1429 1429 1429 1428 1428 1428 1427 1427 1426 1426 1425 1424 1423 1422 1421 1421 1420 1419 1418 1418 1416 1416 1416 1414 1412 1410 1408 1407 1405 1404
1429 1429 1429 1429 1429 1429 1428 1428 1428 1428 1427 1427 1427 1426 1426 1425 1425 1424 1423 1423 1422 1420 1419 1419 1418 1418 1417 1416 1415 1413 1413 1412 1411 1409 1406 1404 1402 1400
1428 1428 1427 1427 1427 1427 1427 1427 1426 1426 1426 1426 1425 1425 1424 1424 1423 1422 1422 1421 1420 1419 1418 1417 1417 1416 1415 1414 1413 1411 1410 1410 1409 1407 1406 1404 1402 1399
1426 1426 1426 1426 1426 1426 1426 1425 1425 1425 1425 1424 1424 1424 1423 1422 1422 1421 1420 1419 1418 1417 1416 1415 1415 1414 1414 1413 1411 1410 1409 1407 1406 1405 1404 1402 1401 1400